Location: Cambridge (historical)
(38.6883°N, 119.0140°W)
Time: 16:47:07
(UTC+00:00)

CZ-2C R/B - Pass Details

Date: 29 October 2020
Orbit: 667 x 785 km, 98.2° (Epoch: 23 November)

Event Time Altitude Azimuth Distance (km) Brightness Sun altitude
Rises 13:10:19 0° 354° (N) 3,189 5.6 -14.2°
Reaches altitude 10° 13:13:24 10° 334° (NNW) 2,236 4.6 -13.6°
Enters shadow 13:16:07 16° 301° (WNW) 1,815 3.9 -13.1°
